CZ-6A DEB

Satellite information

Favourite Embed

Satellite Type and Status

DEBRISIN ORBIT

Key statistics

Satellite CZ-6A DEB at a glance.

Uptime

1128

Days in orbit

Revolutions

≈ 13.9

Per day

Orbit

SSO

Sun Synchronous Orbit

Inclination

98.9

Latest

Satellite identification and parameters

Extended collection of information and parameters for CZ-6A DEB.

Object identification

Identified? True

Debris? True

Object name: CZ-6A DEB

International designator: 2022-151AGY

Object number (NORAD): 56672

Object ID (CCSDS): 56672

Country: PEOPLES REPUBLIC OF CHINA (PRC)

Current information (Y/N): Y

RCS size: SMALL

Orbital parameters

Period: 103.849 minutes

Inclination: 98.8793 deg

SMA: 7318.626 km

Apoapsis: 1053.644 km

Periapsis: 827.337 km

RAAN: 300.4071 deg

Eccentricy: 0.01546104

Argument of periapsis: 265.7894 deg

Mean anomaly: 92.5582 deg

Mean motion: 13.86623115 rev/day

Mean motion (dot): 0.00000543 rev/day2

B* drag term: 0.00045855882 1/REarth

Two-line elements (TLE)

Creation date: Dec. 11, 2025, 7:14 p.m.

Reference frame: TEME

Reference center: EARTH

Epoch: Dec. 11, 2025, 2:32 p.m. UTC

TLE line 0: 0 CZ-6A DEB

TLE line 1: 1 56672U 22151AGY 25345.60584434 .00000543 00000-0 45856-3 0 9993

TLE line 2: 2 56672 98.8793 300.4071 0154610 265.7894 92.5582 13.86623115138239

Live tracking on map

Real-time ground track for satellite CZ-6A DEB.

In-orbit conjunctions

A list of the most updated potential collisions computed for object CZ-6A DEB.

Target Orbit TCA Probability of collision Miss distance Type
CZ-6A DEB LEO 2025-07-21 09:59:36 0.0004114 188.0 (m) DEBRIS
SL-8 R/B LEO 2025-06-29 03:45:53 0.002829527 62.0 (m) ROCKET BODY
COSMOS 1275 DEB LEO 2025-02-24 08:03:37 0.0001238595 112.0 (m) DEBRIS
COSMOS 1372 LEO 2024-06-03 16:59:08 0.002063335 72.0 (m) PAYLOAD

Associated space launch

Chinese satellite reported for atmospheric/ocean/environmental/spatial parameter research purposes, details TBD.

CZ-6A DEB was lifted into orbit during the mission ‘Long March 6A | Yunhai 3’, on board a Long March 6A space rocket.

The launch took place on Nov. 11, 2022, 10:52 p.m. from Launch Complex 9A.

For more information about the launch, click the button.

Launch to space Long March 6A | Yunhai 3
Long March 6A | Yunhai 3

Agency: N/A

Status: Launch Successful

Launch date: Nov. 11, 2022, 10:52 p.m. UTC

Rocket: Long March 6A

Launch pad: Launch Complex 9A

Location: Taiyuan Satellite Launch Center, People's Republic of China

...

Latest news about this satellite

There are no fresh news available about this satellite. Check back as we update our databases every day.


Newsletter sign-up

Weekly statistics, charts and insights to help you stay on top of the space industry.